Wind_Speed
11 9 8 6 10 14 17 20 17 10 12 13 15 19 19 17 15 11 5 2 8 12 12 12 13 15 14 16 17 19 20 24
9 8 9 8 10 11 12 11 12 11 11 12 14 14 9 7 4 3 2 6 10 16 16 14 14 15 17 20 20 24 26 28
7 7 7 8 7 8 9 10 9 10 10 9 8 5 3 3 4 4 6 11 11 11 14 14 16 19 20 23 24 28 33 36
5 4 4 4 6 6 7 9 11 11 10 10 10 8 6 4 5 7 8 12 13 12 14 18 21 24 27 30 30 32 36 39
4 4 4 4 5 5 6 8 7 8 10 11 10 8 6 7 8 10 11 11 13 15 18 18 21 26 29 28 33 37 39 38
5 5 4 6 5 6 6 7 9 10 12 12 13 13 13 12 11 12 13 15 16 17 19 22 23 27 31 32 31 41 36 43
6 6 6 10 8 9 9 10 11 11 10 12 15 16 16 15 14 15 19 19 20 21 24 26 29 31 30 36 35 30 33 43
10 10 9 8 6 10 12 12 12 12 11 13 16 16 16 16 13 11 17 10 13 21 27 30 33 35 35 37 42 39 33 46
9 9 7 10 10 10 12 13 12 12 13 15 14 19 17 16 11 16 19 19 19 25 27 32 34 32 36 32 30 36 35 41
15 14 14 15 17 15 14 15 14 13 15 17 17 17 16 18 19 19 22 25 25 26 30 31 33 32 32 35 36 36 39 45
18 19 22 21 19 17 15 14 14 15 18 19 20 32 19 24 25 22 27 30 30 32 34 36 35 34 37 40 41 43 48 53
19 23 26 25 25 23 18 18 19 17 19 23 23 25 27 26 27 31 33 34 35 35 37 39 39 41 42 42 42 52 54 55
23 25 26 29 26 25 21 20 23 24 26 26 28 26 30 29 32 34 38 39 39 41 42 42 42 43 43 43 48 51 54 57
19 22 25 26 28 26 22 27 27 29 28 30 30 32 32 35 38 39 40 41 42 43 43 44 46 45 46 48 50 53 57 60
18 21 23 26 28 31 32 34 33 32 32 33 36 36 39 41 42 42 43 43 44 44 45 45 46 47 48 51 54 57 60 62
25 23 25 26 28 27 29 34 36 36 36 36 38 38 39 40 41 42 43 43 43 45 45 45 46 49 52 55 58 60 62 63
29 30 26 25 26 27 30 30 32 33 34 35 37 35 37 39 39 41 42 42 43 43 44 46 49 52 56 59 62 63 65 65
29 32 34 28 28 26 29 31 32 33 34 34 36 38 37 37 38 38 39 40 42 44 47 49 53 57 59 62 63 64 65 66
29 34 36 38 38 36 33 34 35 35 36 38 38 36 36 37 37 38 40 42 44 47 50 53 56 59 62 63 64 65 65 66
Wind_Direction
236 237 211 121 72 63 68 69 72 105 174 145 148 132 123 117 117 120 135 221 229 215 220 228 224 221 227 244 259 269 287 297
209 219 175 105 65 64 49 69 81 86 87 89 79 71 71 83 98 80 289 271 268 259 223 228 229 234 244 255 269 282 290 293
43 55 84 57 45 39 28 36 40 42 38 43 47 37 36 4 346 295 281 277 276 266 240 238 243 257 264 275 282 291 293 293
8 342 6 20 15 13 10 13 16 18 2 13 16 12 360 327 285 277 261 262 268 281 254 256 259 262 271 280 289 294 298 296
224 279 313 332 349 348 353 359 357 342 339 350 349 342 329 313 304 291 282 276 268 274 281 287 270 269 288 280 302 296 303 298
263 271 319 333 316 328 327 322 319 325 329 326 320 316 315 313 305 293 279 280 284 287 290 293 295 292 294 291 291 289 293 294
265 278 318 329 320 298 298 307 312 311 316 308 305 301 299 301 300 298 297 280 279 285 290 296 298 296 287 295 285 289 279 273
268 283 305 303 294 291 301 309 310 304 297 298 295 295 298 290 286 297 297 270 313 304 297 297 299 301 296 297 290 284 278 269
271 275 271 290 288 288 291 291 298 298 292 284 288 299 304 302 290 313 308 307 305 300 297 300 301 297 300 301 295 305 282 298
279 274 280 282 280 274 271 276 280 273 271 275 287 278 286 286 292 292 296 301 302 298 302 303 302 303 304 302 297 297 291 291
270 279 282 278 272 274 273 268 265 263 263 264 276 288 286 285 287 284 293 303 303 305 304 306 304 300 298 295 296 293 291 291
262 264 270 272 277 274 264 266 266 264 264 264 270 277 278 280 285 296 298 301 302 304 304 303 301 302 303 295 293 298 300 300
268 261 261 271 274 272 268 265 269 273 266 271 271 274 268 279 287 290 296 297 300 302 301 301 302 300 298 295 292 296 299 299
275 266 262 264 270 268 255 272 270 267 274 278 274 273 284 284 288 291 294 297 298 298 299 301 301 300 300 300 302 302 301 302
274 273 265 259 258 261 269 272 277 276 274 274 280 282 285 287 289 292 294 295 296 297 298 298 298 300 302 302 303 304 305 306
281 278 269 264 261 263 263 267 271 272 275 277 277 281 285 286 289 289 291 293 294 293 294 296 299 300 301 303 305 306 306 305
278 282 274 268 268 263 273 275 276 277 276 276 281 277 278 284 284 286 288 288 289 292 295 298 300 303 305 307 307 306 304 304
270 273 280 282 270 271 274 276 276 276 275 275 275 277 277 278 281 283 286 289 291 295 298 302 304 305 305 304 304 304 305 305
269 270 277 281 279 278 273 273 275 276 275 275 278 280 281 284 285 287 289 292 296 299 302 303 303 303 303 303 304 305 305 305
Height
5734 5735 5737 5737 5737 5736 5735 5734 5736 5739 5741 5742 5744 5745 5749 5752 5754 5756 5759 5763 5765 5768 5771 5771 5772 5774 5775 5777 5778 5779 5778 5777
5735 5738 5738 5738 5739 5738 5739 5739 5742 5745 5745 5746 5745 5746 5750 5753 5755 5755 5759 5762 5765 5767 5767 5769 5771 5772 5773 5773 5773 5773 5772 5771
5738 5739 5740 5740 5739 5740 5741 5742 5743 5743 5744 5746 5746 5749 5751 5752 5753 5757 5760 5762 5762 5765 5766 5766 5768 5769 5769 5769 5767 5767 5766 5763
5738 5739 5740 5741 5741 5742 5743 5743 5742 5743 5747 5747 5747 5748 5751 5753 5756 5757 5759 5760 5759 5762 5764 5764 5764 5765 5764 5763 5762 5761 5758 5756
5739 5739 5739 5740 5742 5743 5743 5744 5745 5747 5747 5747 5749 5751 5752 5754 5755 5756 5758 5759 5760 5760 5760 5759 5758 5759 5758 5755 5755 5752 5751 5748
5738 5739 5740 5741 5741 5742 5743 5745 5746 5745 5745 5746 5748 5748 5749 5750 5752 5754 5756 5756 5756 5756 5756 5757 5755 5754 5752 5749 5749 5746 5743 5740
5738 5738 5740 5740 5741 5742 5743 5743 5743 5744 5745 5745 5745 5745 5746 5748 5749 5750 5750 5751 5752 5753 5752 5751 5749 5748 5746 5743 5738 5736 5732 5729
5736 5737 5739 5739 5740 5740 5741 5742 5743 5743 5744 5743 5742 5743 5745 5743 5744 5745 5744 5745 5747 5747 5745 5744 5742 5739 5737 5735 5732 5728 5726 5724
5733 5733 5735 5736 5737 5738 5738 5739 5740 5740 5740 5739 5740 5743 5744 5741 5738 5740 5740 5741 5741 5741 5740 5738 5735 5732 5729 5726 5723 5720 5716 5713
5729 5729 5731 5733 5733 5735 5735 5735 5736 5737 5737 5736 5737 5738 5739 5738 5736 5735 5734 5735 5736 5735 5733 5731 5728 5725 5722 5719 5716 5712 5710 5706
5728 5727 5727 5728 5730 5731 5732 5732 5732 5733 5732 5732 5731 5727 5727 5732 5732 5727 5729 5729 5727 5725 5723 5721 5718 5716 5712 5709 5706 5703 5700 5695
5726 5726 5724 5724 5723 5725 5728 5728 5727 5728 5728 5726 5727 5726 5726 5725 5725 5725 5723 5722 5720 5718 5715 5713 5710 5707 5703 5700 5696 5692 5688 5683
5721 5721 5722 5720 5720 5720 5722 5723 5723 5723 5720 5720 5720 5720 5720 5720 5719 5719 5716 5714 5711 5708 5707 5704 5701 5698 5695 5691 5688 5683 5677 5671
5715 5716 5716 5717 5716 5716 5718 5718 5718 5715 5716 5715 5715 5713 5714 5713 5711 5709 5707 5705 5703 5700 5697 5694 5690 5687 5684 5680 5675 5670 5663 5657
5708 5709 5710 5711 5712 5711 5709 5709 5710 5711 5709 5707 5705 5705 5704 5703 5701 5699 5697 5696 5694 5691 5688 5685 5681 5678 5673 5668 5663 5658 5652 5644
5702 5703 5703 5703 5704 5706 5705 5703 5703 5703 5702 5702 5699 5698 5696 5695 5694 5693 5691 5688 5685 5682 5679 5675 5672 5667 5662 5657 5651 5645 5638 5631
5695 5692 5694 5696 5696 5697 5696 5695 5693 5694 5694 5692 5691 5691 5690 5689 5686 5684 5682 5679 5676 5673 5669 5666 5661 5656 5650 5644 5638 5631 5623 5616
5690 5689 5683 5686 5686 5689 5688 5687 5687 5686 5686 5685 5684 5683 5682 5680 5678 5675 5672 5670 5666 5663 5658 5654 5650 5644 5638 5631 5624 5617 5609 5602
5684 5681 5679 5678 5677 5677 5679 5678 5678 5677 5677 5676 5674 5672 5671 5669 5667 5664 5662 5658 5655 5651 5647 5643 5638 5633 5624 5616 5609 5602 5595 5586